Location: Moonridge Observatory
(39.2268°N, 77.7914°W)
Time: 00:34:46
(UTC-04:00)

CZ-2C R/B - Visible Passes

Search period start: 01 April 2015 00:00
Search period end: 11 April 2015 00:00
Orbit: 704 x 910 km, 98.1° (Epoch: 30 March)

Date Brightness Start Highest point End Pass type
(mag) Time Alt. Az. Time Alt. Az. Time Alt. Az.
01 Apr 5.5 03:32:51 12° NNW 03:32:51 12° NNW 03:33:15 10° NNW visible
02 Apr 5.6 03:07:46 14° N 03:07:46 14° N 03:08:26 10° N visible
03 Apr 5.7 02:42:42 13° NNE 02:42:42 13° NNE 02:43:21 10° N visible
04 Apr 5.9 02:17:37 11° NNE 02:17:37 11° NNE 02:17:53 10° NNE visible
04 Apr 5.4 03:58:41 12° NNW 03:58:41 12° NNW 03:59:01 10° NNW visible
05 Apr 5.3 03:33:37 15° NNW 03:33:37 15° NNW 03:34:29 10° NNW visible
06 Apr 5.3 03:08:32 17° N 03:08:32 17° N 03:09:41 10° N visible
07 Apr 5.5 02:43:27 16° NNE 02:43:27 16° NNE 02:44:38 10° N visible
08 Apr 5.7 02:18:22 13° NNE 02:18:22 13° NNE 02:19:12 10° NNE visible
08 Apr 5.1 03:59:26 15° NNW 03:59:26 15° NNW 04:00:13 10° NNW visible
09 Apr 5.0 03:34:21 19° NNW 03:34:21 19° NNW 03:35:43 10° NNW visible
10 Apr 5.0 03:09:16 21° N 03:09:16 21° N 03:10:56 10° N visible
